Location: ?????oe
(44.4874°N, 135.7046°E)
Time: 07:13:55
(UTC+00:00)

Cosmos 2219 Rocket - Visible Passes

Search period start: 11 March 2026 00:00
Search period end: 21 March 2026 00:00
Orbit: 828 x 844 km, 71.0° (Epoch: 10 March)

Date Brightness Start Highest point End Pass type
(mag) Time Alt. Az. Time Alt. Az. Time Alt. Az.
11 Mar 3.9 17:51:17 26° N 17:51:17 26° N 17:53:47 10° NNE visible
11 Mar 4.3 19:32:58 11° NW 19:33:40 11° NW 19:35:06 10° NNW visible
12 Mar 4.1 17:34:50 24° N 17:34:50 24° N 17:37:00 10° NNE visible
12 Mar 4.3 19:16:31 12° NW 19:16:45 12° NW 19:18:40 10° NNW visible
13 Mar 4.3 17:18:21 21° NNE 17:18:21 21° NNE 17:20:13 10° NNE visible
13 Mar 4.3 19:00:02 12° NW 19:00:02 12° NW 19:02:09 10° NNW visible
14 Mar 4.4 17:01:51 19° NNE 17:01:51 19° NNE 17:03:25 10° NNE visible
14 Mar 4.3 18:43:32 13° NNW 18:43:32 13° NNW 18:45:34 10° NNW visible
15 Mar 4.6 16:45:20 18° NNE 16:45:20 18° NNE 16:46:38 10° NNE visible
15 Mar 4.3 18:27:00 14° NNW 18:27:00 14° NNW 18:28:57 10° N visible
16 Mar 4.7 16:28:47 16° NNE 16:28:47 16° NNE 16:29:51 10° NNE visible
16 Mar 4.4 18:10:28 14° NNW 18:10:28 14° NNW 18:12:19 10° N visible
17 Mar 4.8 16:12:14 14° NNE 16:12:14 14° NNE 16:13:02 10° NNE visible
17 Mar 4.4 17:53:54 14° NNW 17:53:54 14° NNW 17:55:39 10° N visible
18 Mar 4.9 15:55:38 13° NNE 15:55:38 13° NNE 15:56:14 10° NNE visible
18 Mar 4.4 17:37:19 15° NNW 17:37:19 15° NNW 17:38:59 10° N visible
19 Mar 5.0 15:39:02 12° NNE 15:39:02 12° NNE 15:39:26 10° NNE visible
19 Mar 4.5 17:20:42 15° NNW 17:20:42 15° NNW 17:22:17 10° N visible
20 Mar 5.0 15:22:25 11° NNE 15:22:25 11° NNE 15:22:37 10° NNE visible
20 Mar 4.5 17:04:05 15° NNW 17:04:05 15° NNW 17:05:35 10° N visible
